Location: Dalton
(34.7700°N, 84.9700°W)
Time: 09:59:24
(UTC-05:00)

Vanguard 1 Rocket - Visible Passes

Search period start: 16 December 2017 00:00
Search period end: 26 December 2017 00:00
Orbit: 656 x 4222 km, 34.3° (Epoch: 15 December)

Date Brightness Start Highest point End Pass type
(mag) Time Alt. Az. Time Alt. Az. Time Alt. Az.
16 Dec 11.6 00:48:57 10° W 01:29:31 - SSE 00:49:05 10° W visible
16 Dec 9.4 18:41:17 10° W 18:51:42 88° S 19:07:28 20° E visible
16 Dec 10.0 21:06:52 10° W 21:22:06 75° SSW 21:24:46 70° SSE visible
16 Dec 11.1 23:34:47 10° W 00:21:41 - SSE 23:42:05 28° W visible
17 Dec 9.1 17:30:43 10° WSW 17:39:09 83° SSE 17:56:31 10° E visible
17 Dec 9.7 19:55:35 10° W 20:08:11 84° S 20:17:50 43° ESE visible
17 Dec 10.4 22:22:04 10° WNW 22:35:09 52° WSW 22:35:09 52° WSW visible
18 Dec11.701:30:57S01:30:57S00:52:28Wvisible
18 Dec 9.4 18:44:42 10° W 18:54:56 88° S 19:10:59 19° E visible
18 Dec 10.0 21:10:13 10° W 21:25:01 68° SSW 21:28:19 63° SSE visible
18 Dec 11.1 23:38:32 10° W 00:22:54 - SSE 23:45:39 26° WSW visible
19 Dec 9.1 17:34:08 10° W 17:42:25 87° S 17:59:28 10° E visible
19 Dec 9.7 19:58:58 10° W 20:11:16 78° SSW 20:21:36 39° ESE visible
19 Dec 10.5 22:25:33 10° W 22:38:57 47° SW 22:38:57 47° SW visible
20 Dec11.801:31:55S01:31:55S00:56:17Wvisible
20 Dec 9.4 18:48:08 10° W 18:58:10 86° S 19:15:02 17° ESE visible
20 Dec 10.1 21:13:37 10° W 21:27:55 61° SSW 21:32:23 54° SSE visible
20 Dec 11.2 23:42:41 10° W 00:23:36 - SSE 23:49:45 23° WSW visible
21 Dec 9.0 17:37:35 10° W 17:45:42 88° S 18:02:26 10° E visible
21 Dec 9.8 20:02:23 10° W 20:14:21 72° SSW 20:26:00 33° SE visible
21 Dec 10.7 22:29:13 10° W 22:43:23 40° SW 22:43:23 40° SW visible
22 Dec11.801:32:17S01:32:17S01:00:46Wvisible
22 Dec 9.4 18:51:33 10° W 19:01:22 81° SSW 19:19:51 13° ESE visible
22 Dec 10.3 21:17:06 10° W 21:30:50 52° SSW 21:37:15 43° SSE visible
22 Dec 11.4 23:47:28 10° W 00:23:34 - S 23:54:40 20° WSW visible
23 Dec 9.0 17:41:02 10° W 17:49:00 87° S 18:05:24 10° E visible
23 Dec 9.8 20:05:48 10° W 20:17:24 63° SSW 20:31:26 25° SE visible
23 Dec 10.9 22:33:11 10° W 22:47:31 33° SW 22:48:53 33° SSW visible
24 Dec 9.4 18:55:00 10° W 19:04:34 74° SSW 19:23:54 10° ESE visible
24 Dec 10.5 21:20:44 10° W 21:33:48 43° SSW 21:43:36 30° SSE visible
24 Dec 11.5 23:53:31 10° WSW 00:22:12 - S 00:01:07 16° SW visible
25 Dec 9.0 17:44:29 10° W 17:52:18 83° S 18:08:19 10° ESE visible
25 Dec 10.0 20:09:17 10° W 20:20:29 54° SSW 20:39:10 14° SE visible
25 Dec 11.2 22:37:38 10° W 22:50:27 25° SW 22:56:49 23° SSW visible
